Tracking 29065 objects as of 22-Jul-2024
HD Live streaming from Space Station
objects crossing your sky now

COSMOS 1275 DEB

Track COSMOS 1275 DEB now!
10-day predictions


NORAD ID: 12648
Int'l Code: 1981-053C
Perigee: 957.0 km
Apogee: 977.2 km
Inclination: 83.0 °
Period: 104.3 minutes
Semi major axis: 7338 km
RCS: 0.408 m2 (medium)
Launch date: June 4, 1981
Source: Commonwealth of Independent States (former USSR) (CIS)
Launch site: PLESETSK MISSILE AND SPACE COMPLEX (PKMTR)

Note: This is SATELLITE DEBRIS
Your satellite tracking list
Your tracking list is empty




NASA's NSSDC Master Catalog

Two Line Element Set (TLE):
1 12648U 81053C   24204.41649118  .00000593  00000-0  54597-3 0  9994
2 12648  82.9708   5.4075 0013766 337.7308  83.7891 13.81118516161742
Source of the keplerian elements: AFSPC